Overview Statistics Trail Chart Weather Telemetry Raw packets
 

This is the latest recevied weather packets stored in our database for station/object DK1CC-11. If no packets are shown the sender has not sent any weather packets the latest 10 day(s).

<< 35 36 37 38 39 >>
Time Temp. Humidity Pressure Rain* Wind** Luminosity Snow
1787740103 19.44° C 92% 1005.7 hPa - - - -
1787739203 18.89° C 92% 1005.7 hPa - - - -
1787738303 18.33° C 93% 1005.8 hPa - - - -
1787737403 18.33° C 92% 1006 hPa - - - -
1787736503 18.33° C 94% 1005.9 hPa - - - -
1787735603 17.78° C 94% 1006.1 hPa - - - -
1787734703 17.78° C 93% 1006 hPa - - - -
1787733803 17.22° C 94% 1006 hPa - - - -
1787732903 18.33° C 90% 1006 hPa - - - -
1787732003 16.67° C 100% 1005.9 hPa - - - -
1787731103 16.11° C 100% 1005.9 hPa - - - -
1787730203 15.56° C 100% 1005.9 hPa - - - -
1787729303 15.56° C 100% 1006 hPa - - - -
1787728402 15° C 100% 1005.8 hPa - - - -
1787727502 15° C 100% 1005.4 hPa - - - -
1787726602 14.44° C 100% 1005.4 hPa - - - -
1787725702 14.44° C 100% 1005.9 hPa - - - -
1787724802 14.44° C 100% 1005.6 hPa - - - -
1787723902 14.44° C 100% 1005.4 hPa - - - -
1787723002 14.44° C 100% 1005 hPa - - - -
1787722102 13.89° C 100% 1005 hPa - - - -
1787721202 13.89° C 100% 1005 hPa - - - -
1787720302 13.89° C 100% 1005 hPa - - - -
1787719402 13.89° C 100% 1005.2 hPa - - - -
1787718502 13.89° C 100% 1005.1 hPa - - - -

* Rain since midnight (hover to see other rain measurements)
** Current wind speed in m/s (hover to see current wind gust speed)